FW3268 Weather Reports


Display with metric or nautical units.
time (UTC)temp
F
wind
direction
speed
MPH
gust
MPH
rain 1hr
in
rain 24hr
in
rain mn
in
humidity
%
barometer
mb
20260831093000 70 153 2.0 3.0 0.00 0.00 0.00 92 1017.0
20260831091501 70 134 1.0 3.0 0.00 0.00 0.00 92 1017.1
20260831090005 70 131 2.0 3.0 0.00 0.00 0.00 91 1017.2
20260831084501 70 124 0.0 1.0 0.00 0.00 0.00 91 1017.2
20260831083000 71 124 0.0 0.0 0.00 0.00 0.00 90 1017.1
20260831080004 71 144 1.0 2.0 0.00 0.00 0.00 91 1016.8
20260831074500 71 141 1.0 2.0 0.00 0.00 0.00 91 1016.5
20260831073000 71 150 1.0 1.0 0.00 0.00 0.00 91 1016.6
20260831071500 71 144 0.0 1.0 0.00 0.00 0.00 91 1016.8
20260831064502 71 129 2.0 2.0 0.00 0.00 0.00 90 1016.9
20260831063000 72 122 1.0 3.0 0.00 0.00 0.00 88 1017.0
20260831061502 72 130 0.0 2.0 0.00 0.00 0.00 88 1017.1
20260831060004 72 130 0.0 0.0 0.00 0.00 0.00 88 1017.3
20260831054501 72 130 0.0 0.0 0.00 0.00 0.00 87 1017.3
20260831053000 73 130 0.0 0.0 0.00 0.00 0.00 87 1017.5
20260831051500 73 120 2.0 3.0 0.00 0.00 0.00 87 1017.1
20260831050005 73 120 1.0 3.0 0.00 0.00 0.00 88 1017.0
20260831044502 73 148 0.0 0.0 0.00 0.00 0.00 87 1017.1
20260831043002 73 148 0.0 0.0 0.00 0.00 0.00 88 1017.2
20260831041502 73 148 0.0 1.0 0.00 0.00 0.00 88 1017.0
20260831040008 73 136 2.0 3.0 0.00 0.00 0.00 89 1016.9
20260831034504 73 136 2.0 3.0 0.00 0.00 0.00 89 1016.9
20260831033003 73 136 1.0 2.0 0.00 0.00 0.00 89 1017.0
20260831031503 73 125 2.0 3.0 0.00 0.00 0.00 90 1017.0
20260831030007 74 132 2.0 3.0 0.00 0.00 0.00 88 1017.0
20260831024503 74 145 0.0 0.0 0.00 0.00 0.00 87 1017.3
20260831023003 74 145 0.0 1.0 0.00 0.00 0.00 88 1017.2
20260831021502 74 145 0.0 0.0 0.00 0.00 0.00 89 1017.3
20260831014503 74 153 1.0 2.0 0.00 0.00 0.00 92 1017.3
20260831013003 75 283 0.0 0.0 0.00 0.00 0.00 90 1017.3
20260831011502 75 283 0.0 0.0 0.00 0.00 0.00 90 1017.1
20260831010006 75 283 0.0 0.0 0.00 0.00 0.00 90 1017.0
20260831004503 76 283 0.0 0.0 0.00 0.00 0.00 88 1016.8
20260831003002 77 283 0.0 0.0 0.00 0.00 0.00 88 1016.9
20260831001502 77 283 0.0 0.0 0.00 0.00 0.00 88 1016.7
20260831000006 78 283 1.0 1.0 0.00 0.00 0.00 88 1016.9
20260830234505 79 283 0.0 1.0 0.00 0.00 0.00 87 1017.0
20260830233003 79 283 1.0 1.0 0.00 0.00 0.00 85 1017.1
20260830230006 82 283 0.0 0.0 0.00 0.00 0.00 78 1017.3
20260830224503 82 283 0.0 0.0 0.00 0.00 0.00 77 1017.4
20260830223002 82 283 0.0 1.0 0.00 0.00 0.00 76 1017.4
20260830221502 82 297 1.0 2.0 0.00 0.00 0.00 74 1017.4
20260830220006 82 276 1.0 3.0 0.00 0.00 0.00 76 1017.1
20260830213002 83 226 2.0 4.0 0.00 0.00 0.00 72 1017.0
20260830211503 82 273 2.0 6.0 0.00 0.00 0.00 72 1017.0
20260830210007 83 240 3.0 8.0 0.00 0.00 0.00 71 1016.9
20260830203003 82 207 4.0 9.0 0.00 0.00 0.00 71 1017.0
20260830201502 82 226 4.0 9.0 0.00 0.00 0.00 70 1017.4
20260830200007 81 207 3.0 6.0 0.00 0.00 0.00 73 1017.6
20260830193002 81 258 6.0 13.0 0.00 0.00 0.00 71 1017.7
20260830191502 79 238 5.0 11.0 0.00 0.00 0.00 70 1017.9
20260830190005 79 192 4.0 9.0 0.00 0.00 0.00 76 1017.8
20260830184503 78 147 5.0 10.0 0.00 0.00 0.00 76 1017.6
20260830183001 78 169 5.0 10.0 0.00 0.00 0.00 77 1018.1
20260830181502 78 160 4.0 9.0 0.00 0.00 0.00 79 1018.7
20260830180005 77 167 5.0 9.0 0.00 0.00 0.00 79 1018.9
20260830174503 77 162 4.0 8.0 0.00 0.00 0.00 81 1019.1
20260830173001 77 124 3.0 6.0 0.00 0.00 0.00 82 1019.6
20260830171501 76 160 2.0 4.0 0.00 0.00 0.00 81 1019.7
20260830170004 77 182 1.0 3.0 0.00 0.00 0.00 80 1019.9
20260830164502 76 183 1.0 3.0 0.00 0.00 0.00 79 1020.2
20260830163001 76 158 1.0 3.0 0.00 0.00 0.00 80 1020.4
20260830161502 76 153 0.0 2.0 0.00 0.00 0.00 81 1020.3
20260830160007 75 179 0.0 2.0 0.00 0.00 0.00 82 1020.2
20260830154501 75 143 0.0 0.0 0.00 0.00 0.00 82 1020.3
20260830153001 75 143 0.0 0.0 0.00 0.00 0.00 82 1020.1
20260830151501 74 250 0.0 0.0 0.00 0.00 0.00 82 1020.0
20260830150004 73 249 0.0 0.0 0.00 0.00 0.00 84 1019.9
20260830143001 73 249 0.0 0.0 0.00 0.00 0.00 84 1019.4
20260830141502 73 250 0.0 2.0 0.00 0.00 0.00 84 1019.1
20260830134502 72 229 2.0 6.0 0.00 0.00 0.00 83 1018.7
20260830133001 72 242 2.0 4.0 0.00 0.00 0.00 84 1018.7
20260830131501 71 171 1.0 4.0 0.00 0.00 0.00 86 1018.8
20260830130005 70 169 2.0 4.0 0.00 0.00 0.00 86 1018.6
20260830124502 68 174 1.0 4.0 0.00 0.00 0.00 89 1018.6
20260830123001 67 153 2.0 4.0 0.00 0.00 0.00 90 1018.6
20260830121501 66 121 1.0 2.0 0.00 0.00 0.00 90 1018.4
20260830120006 66 132 2.0 4.0 0.00 0.00 0.00 90 1018.4
20260830114501 65 124 2.0 4.0 0.00 0.00 0.00 91 1018.2
20260830113001 65 142 0.0 2.0 0.00 0.00 0.00 91 1018.3
20260830111501 65 130 1.0 3.0 0.00 0.00 0.00 91 1018.4
20260830110005 65 125 2.0 3.0 0.00 0.00 0.00 90 1018.4
20260830104502 66 124 2.0 3.0 0.00 0.00 0.00 89 1018.5
20260830103002 66 120 2.0 3.0 0.00 0.00 0.00 88 1018.5
20260830101501 66 113 2.0 3.0 0.00 0.00 0.00 88 1018.5
20260830100004 65 134 0.0 1.0 0.00 0.00 0.00 90 1018.5
20260830094501 65 134 0.0 2.0 0.00 0.00 0.00 90 1018.4